Time,TemperatureF,DewpointF,PressureIn,WindDirection,WindDirectionDegrees,WindSpeedMPH,WindSpeedGustMPH,Humidity,HourlyPrecipIn,Conditions,Clouds,dailyrainin,SoftwareType,DateUTC
2013-07-01 00:01:00,62.0,50.0,-100.00,North,5,2.0,3.0,64,0.00,,,-99.99,,2013-07-01 05:01:00,
2013-07-01 00:11:00,61.0,50.0,-100.00,North,0,1.0,3.0,66,0.00,,,-99.99,,2013-07-01 05:11:00,
2013-07-01 00:22:00,61.0,50.0,-100.00,NNW,345,3.0,3.0,67,0.00,,,-99.99,,2013-07-01 05:22:00,
2013-07-01 00:33:00,61.0,51.0,-100.00,NNW,345,2.0,4.0,68,0.00,,,-99.99,,2013-07-01 05:33:00,
2013-07-01 00:42:00,61.0,51.0,-100.00,NNW,345,3.0,4.0,69,0.00,,,-99.99,,2013-07-01 05:42:00,
2013-07-01 00:52:00,61.0,51.0,-100.00,NNW,345,4.0,4.0,69,0.00,,,-99.99,,2013-07-01 05:52:00,
2013-07-01 01:02:00,61.0,51.0,-100.00,North,350,2.0,4.0,69,0.00,,,-99.99,,2013-07-01 06:02:00,
2013-07-01 01:12:00,61.0,51.0,-100.00,North,350,2.0,4.0,70,0.00,,,-99.99,,2013-07-01 06:12:00,
2013-07-01 01:24:00,60.0,51.0,-100.00,NNW,345,2.0,4.0,72,0.00,,,-99.99,,2013-07-01 06:24:00,
2013-07-01 01:33:00,61.0,52.0,-100.00,NNW,340,2.0,5.0,72,0.00,,,-99.99,,2013-07-01 06:33:00,
2013-07-01 01:43:00,60.0,52.0,-100.00,NNW,345,4.0,5.0,73,0.00,,,-99.99,,2013-07-01 06:43:00,
2013-07-01 01:53:00,61.0,52.0,-100.00,NNW,345,4.0,5.0,73,0.00,,,-99.99,,2013-07-01 06:53:00,
2013-07-01 02:01:00,61.0,52.0,-100.00,North,350,4.0,6.0,72,0.00,,,-99.99,,2013-07-01 07:01:00,
2013-07-01 02:11:00,61.0,52.0,-100.00,North,350,4.0,6.0,72,0.00,,,-99.99,,2013-07-01 07:11:00,
2013-07-01 02:22:00,61.0,53.0,-100.00,NNW,345,4.0,6.0,73,0.00,,,-99.99,,2013-07-01 07:22:00,
2013-07-01 02:33:00,61.0,53.0,-100.00,NNW,345,4.0,6.0,74,0.00,,,-99.99,,2013-07-01 07:33:00,
2013-07-01 02:43:00,61.0,53.0,-100.00,North,350,4.0,6.0,75,0.00,,,-99.99,,2013-07-01 07:43:00,
2013-07-01 02:53:00,61.0,54.0,-100.00,NNW,340,4.0,6.0,76,0.00,,,-99.99,,2013-07-01 07:53:00,
2013-07-01 03:01:00,61.0,54.0,-100.00,NNW,340,4.0,6.0,77,0.00,,,-99.99,,2013-07-01 08:01:00,
2013-07-01 03:11:00,61.0,54.0,-100.00,NNW,345,4.0,6.0,78,0.00,,,-99.99,,2013-07-01 08:11:00,
2013-07-01 03:22:00,60.0,54.0,-100.00,NNW,345,4.0,6.0,79,0.00,,,-99.99,,2013-07-01 08:22:00,
2013-07-01 03:33:00,60.0,54.0,-100.00,North,0,1.0,6.0,79,0.00,,,-99.99,,2013-07-01 08:33:00,
2013-07-01 03:42:00,59.0,53.0,-100.00,NNW,340,2.0,3.0,81,0.00,,,-99.99,,2013-07-01 08:42:00,
2013-07-01 03:52:00,58.0,52.0,-100.00,NNW,335,2.0,2.0,82,0.00,,,-99.99,,2013-07-01 08:52:00,
2013-07-01 04:02:00,57.0,53.0,-100.00,NNW,335,2.0,3.0,83,0.00,,,-99.99,,2013-07-01 09:02:00,
2013-07-01 04:11:00,58.0,53.0,-100.00,NNW,330,2.0,4.0,85,0.00,,,-99.99,,2013-07-01 09:11:00,
2013-07-01 04:22:00,58.0,54.0,-100.00,NW,325,4.0,5.0,85,0.00,,,-99.99,,2013-07-01 09:22:00,
2013-07-01 04:34:00,59.0,54.0,-100.00,NNW,330,4.0,6.0,85,0.00,,,-99.99,,2013-07-01 09:34:00,
2013-07-01 04:43:00,59.0,54.0,-100.00,NNW,335,4.0,7.0,85,0.00,,,-99.99,,2013-07-01 09:43:00,
2013-07-01 04:53:00,59.0,54.0,-100.00,NNW,335,4.0,6.0,85,0.00,,,-99.99,,2013-07-01 09:53:00,
2013-07-01 05:03:00,59.0,54.0,-100.00,NNW,340,5.0,7.0,85,0.00,,,-99.99,,2013-07-01 10:03:00,
2013-07-01 05:11:00,59.0,54.0,-100.00,NNW,335,4.0,7.0,85,0.00,,,-99.99,,2013-07-01 10:11:00,
2013-07-01 05:22:00,59.0,54.0,-100.00,NNW,335,4.0,6.0,85,0.00,,,-99.99,,2013-07-01 10:22:00,
2013-07-01 05:33:00,58.0,54.0,-100.00,NNW,340,4.0,6.0,85,0.00,,,-99.99,,2013-07-01 10:33:00,
2013-07-01 05:42:00,58.0,54.0,-100.00,NNW,330,3.0,5.0,85,0.00,,,-99.99,,2013-07-01 10:42:00,
2013-07-01 05:52:00,58.0,54.0,-100.00,NNW,335,3.0,5.0,85,0.00,,,-99.99,,2013-07-01 10:52:00,
2013-07-01 06:02:00,58.0,54.0,-100.00,NNW,335,3.0,5.0,85,0.00,,,-99.99,,2013-07-01 11:02:00,
2013-07-01 06:11:00,58.0,54.0,-100.00,NNW,335,4.0,6.0,86,0.00,,,-99.99,,2013-07-01 11:11:00,
2013-07-01 06:22:00,58.0,54.0,-100.00,North,350,2.0,6.0,86,0.00,,,-99.99,,2013-07-01 11:22:00,
2013-07-01 06:33:00,58.0,54.0,-100.00,North,0,2.0,5.0,86,0.00,,,-99.99,,2013-07-01 11:33:00,
2013-07-01 06:43:00,58.0,54.0,-100.00,NW,320,2.0,4.0,86,0.00,,,-99.99,,2013-07-01 11:43:00,
2013-07-01 06:52:00,58.0,54.0,-100.00,NW,325,4.0,7.0,87,0.00,,,-99.99,,2013-07-01 11:52:00,
2013-07-01 07:01:00,59.0,55.0,-100.00,NNW,330,4.0,7.0,86,0.00,,,-99.99,,2013-07-01 12:01:00,
2013-07-01 07:11:00,59.0,55.0,-100.00,NNW,335,4.0,6.0,85,0.00,,,-99.99,,2013-07-01 12:11:00,
2013-07-01 07:22:00,60.0,55.0,-100.00,NW,325,4.0,7.0,84,0.00,,,-99.99,,2013-07-01 12:22:00,
2013-07-01 07:33:00,61.0,55.0,-100.00,NNW,335,4.0,7.0,82,0.00,,,-99.99,,2013-07-01 12:33:00,
2013-07-01 07:43:00,62.0,56.0,-100.00,NNW,330,4.0,6.0,80,0.00,,,-99.99,,2013-07-01 12:43:00,
2013-07-01 07:53:00,62.0,56.0,-100.00,NW,320,4.0,6.0,79,0.00,,,-99.99,,2013-07-01 12:53:00,
2013-07-01 08:12:00,64.0,57.0,-100.00,NNW,335,4.0,7.0,76,0.00,,,-99.99,,2013-07-01 13:12:00,
2013-07-01 08:23:00,65.0,57.0,-100.00,NNW,330,6.0,7.0,74,0.00,,,-99.99,,2013-07-01 13:23:00,
2013-07-01 08:33:00,66.0,57.0,-100.00,NW,320,5.0,7.0,71,0.00,,,-99.99,,2013-07-01 13:33:00,
2013-07-01 08:43:00,66.0,57.0,-100.00,NW,320,5.0,7.0,71,0.00,,,-99.99,,2013-07-01 13:43:00,
2013-07-01 09:11:00,71.0,57.0,-100.00,NW,320,4.0,6.0,61,0.00,,,-99.99,,2013-07-01 14:11:00,
2013-07-01 09:22:00,72.0,57.0,-100.00,North,0,4.0,8.0,59,0.00,,,-99.99,,2013-07-01 14:22:00,
2013-07-01 09:34:00,73.0,56.0,-100.00,NNW,340,6.0,9.0,55,0.00,,,-99.99,,2013-07-01 14:34:00,
2013-07-01 09:43:00,74.0,56.0,-100.00,North,0,4.0,8.0,52,0.00,,,-99.99,,2013-07-01 14:43:00,
2013-07-01 09:52:00,75.0,55.0,-100.00,North,0,4.0,12.0,50,0.00,,,-99.99,,2013-07-01 14:52:00,
2013-07-01 10:02:00,75.0,54.0,-100.00,North,350,6.0,10.0,48,0.00,,,-99.99,,2013-07-01 15:02:00,
2013-07-01 10:11:00,76.0,55.0,-100.00,NNE,25,3.0,9.0,48,0.00,,,-99.99,,2013-07-01 15:11:00,
2013-07-01 10:23:00,76.0,54.0,-100.00,North,10,5.0,13.0,45,0.00,,,-99.99,,2013-07-01 15:23:00,
2013-07-01 10:34:00,77.0,53.0,-100.00,North,10,3.0,10.0,44,0.00,,,-99.99,,2013-07-01 15:34:00,
2013-07-01 10:43:00,78.0,54.0,-100.00,NE,40,5.0,9.0,43,0.00,,,-99.99,,2013-07-01 15:43:00,
2013-07-01 10:52:00,78.0,54.0,-100.00,NE,40,5.0,9.0,43,0.00,,,-99.99,,2013-07-01 15:52:00,
2013-07-01 11:01:00,78.0,52.0,-100.00,North,0,7.0,12.0,40,0.00,,,-99.99,,2013-07-01 16:01:00,
2013-07-01 11:11:00,79.0,52.0,-100.00,North,10,2.0,11.0,39,0.00,,,-99.99,,2013-07-01 16:11:00,
2013-07-01 11:22:00,79.0,52.0,-100.00,North,0,7.0,14.0,38,0.00,,,-99.99,,2013-07-01 16:22:00,
2013-07-01 11:33:00,80.0,52.0,-100.00,NNE,25,4.0,10.0,38,0.00,,,-99.99,,2013-07-01 16:33:00,
2013-07-01 11:44:00,80.0,52.0,-100.00,NE,55,7.0,17.0,37,0.00,,,-99.99,,2013-07-01 16:44:00,
2013-07-01 11:53:00,80.0,52.0,-100.00,ENE,60,7.0,11.0,37,0.00,,,-99.99,,2013-07-01 16:53:00,
2013-07-01 12:02:00,80.0,51.0,-100.00,ENE,65,6.0,14.0,37,0.00,,,-99.99,,2013-07-01 17:02:00,
2013-07-01 12:12:00,80.0,51.0,-100.00,NE,40,7.0,14.0,36,0.00,,,-99.99,,2013-07-01 17:12:00,
2013-07-01 12:23:00,80.0,50.0,-100.00,NNE,25,6.0,12.0,35,0.00,,,-99.99,,2013-07-01 17:23:00,
2013-07-01 12:33:00,81.0,50.0,-100.00,NE,50,7.0,12.0,34,0.00,,,-99.99,,2013-07-01 17:33:00,
2013-07-01 12:43:00,81.0,50.0,-100.00,NE,55,7.0,14.0,34,0.00,,,-99.99,,2013-07-01 17:43:00,
2013-07-01 12:53:00,81.0,51.0,-100.00,NE,50,6.0,14.0,34,0.00,,,-99.99,,2013-07-01 17:53:00,
2013-07-01 13:02:00,81.0,50.0,-100.00,NE,40,7.0,16.0,34,0.00,,,-99.99,,2013-07-01 18:02:00,
2013-07-01 13:11:00,81.0,51.0,-100.00,NE,40,6.0,15.0,34,0.00,,,-99.99,,2013-07-01 18:11:00,
2013-07-01 13:22:00,82.0,51.0,-100.00,ENE,60,6.0,15.0,34,0.00,,,-99.99,,2013-07-01 18:22:00,
2013-07-01 13:33:00,81.0,51.0,-100.00,NE,55,6.0,12.0,34,0.00,,,-99.99,,2013-07-01 18:33:00,
2013-07-01 13:43:00,82.0,51.0,-100.00,NE,50,7.0,14.0,34,0.00,,,-99.99,,2013-07-01 18:43:00,
2013-07-01 13:52:00,81.0,50.0,-100.00,NE,55,9.0,16.0,33,0.00,,,-99.99,,2013-07-01 18:52:00,
2013-07-01 14:01:00,82.0,51.0,-100.00,ENE,70,6.0,12.0,33,0.00,,,-99.99,,2013-07-01 19:01:00,
2013-07-01 14:11:00,82.0,51.0,-100.00,NE,55,6.0,13.0,33,0.00,,,-99.99,,2013-07-01 19:11:00,
2013-07-01 14:21:00,82.0,50.0,-100.00,NE,45,6.0,14.0,33,0.00,,,-99.99,,2013-07-01 19:21:00,
2013-07-01 14:33:00,82.0,50.0,-100.00,ENE,65,9.0,14.0,32,0.00,,,-99.99,,2013-07-01 19:33:00,
2013-07-01 14:44:00,82.0,50.0,-100.00,NE,45,7.0,16.0,32,0.00,,,-99.99,,2013-07-01 19:44:00,
2013-07-01 14:52:00,83.0,50.0,-100.00,ENE,70,7.0,13.0,32,0.00,,,-99.99,,2013-07-01 19:52:00,
2013-07-01 15:01:00,81.0,50.0,-100.00,NE,50,7.0,12.0,33,0.00,,,-99.99,,2013-07-01 20:01:00,
2013-07-01 15:11:00,81.0,49.0,-100.00,NE,50,4.0,14.0,32,0.00,,,-99.99,,2013-07-01 20:11:00,
2013-07-01 15:22:00,83.0,50.0,-100.00,North,355,4.0,9.0,31,0.00,,,-99.99,,2013-07-01 20:22:00,
2013-07-01 15:34:00,83.0,50.0,-100.00,ENE,60,6.0,10.0,31,0.00,,,-99.99,,2013-07-01 20:34:00,
2013-07-01 15:43:00,81.0,48.0,-100.00,ENE,60,3.0,12.0,31,0.00,,,-99.99,,2013-07-01 20:43:00,
2013-07-01 15:52:00,81.0,49.0,-100.00,ENE,60,9.0,13.0,32,0.00,,,-99.99,,2013-07-01 20:52:00,
2013-07-01 16:01:00,83.0,50.0,-100.00,NE,50,5.0,12.0,31,0.00,,,-99.99,,2013-07-01 21:01:00,
2013-07-01 16:11:00,81.0,49.0,-100.00,NE,55,7.0,13.0,31,0.00,,,-99.99,,2013-07-01 21:11:00,
2013-07-01 16:23:00,81.0,49.0,-100.00,ENE,60,7.0,13.0,31,0.00,,,-99.99,,2013-07-01 21:23:00,
2013-07-01 16:34:00,82.0,51.0,-100.00,ENE,60,6.0,12.0,33,0.00,,,-99.99,,2013-07-01 21:34:00,
2013-07-01 16:43:00,81.0,50.0,-100.00,ENE,75,7.0,12.0,33,0.00,,,-99.99,,2013-07-01 21:43:00,
2013-07-01 16:53:00,80.0,49.0,-100.00,ENE,65,4.0,12.0,34,0.00,,,-99.99,,2013-07-01 21:53:00,
2013-07-01 17:01:00,81.0,51.0,-100.00,NE,55,4.0,11.0,35,0.00,,,-99.99,,2013-07-01 22:01:00,
2013-07-01 17:11:00,80.0,50.0,-100.00,NE,55,5.0,9.0,35,0.00,,,-99.99,,2013-07-01 22:11:00,
2013-07-01 17:23:00,81.0,51.0,-100.00,ENE,70,2.0,6.0,35,0.00,,,-99.99,,2013-07-01 22:23:00,
2013-07-01 17:33:00,79.0,50.0,-100.00,NNE,30,3.0,9.0,35,0.00,,,-99.99,,2013-07-01 22:33:00,
2013-07-01 17:42:00,79.0,50.0,-100.00,ENE,60,2.0,6.0,36,0.00,,,-99.99,,2013-07-01 22:42:00,
2013-07-01 17:53:00,82.0,52.0,-100.00,ENE,75,6.0,11.0,35,0.00,,,-99.99,,2013-07-01 22:53:00,
2013-07-01 18:01:00,81.0,51.0,-100.00,NE,45,4.0,11.0,35,0.00,,,-99.99,,2013-07-01 23:01:00,
2013-07-01 18:11:00,80.0,51.0,-100.00,NE,40,2.0,8.0,35,0.00,,,-99.99,,2013-07-01 23:11:00,
2013-07-01 18:22:00,82.0,52.0,-100.00,ENE,60,2.0,4.0,35,0.00,,,-99.99,,2013-07-01 23:22:00,
2013-07-01 18:33:00,80.0,50.0,-100.00,NE,40,2.0,6.0,35,0.00,,,-99.99,,2013-07-01 23:33:00,
2013-07-01 18:44:00,79.0,49.0,-100.00,NE,45,3.0,7.0,35,0.00,,,-99.99,,2013-07-01 23:44:00,
2013-07-01 18:53:00,78.0,49.0,-100.00,North,0,1.0,3.0,36,0.00,,,-99.99,,2013-07-01 23:53:00,
2013-07-01 19:01:00,78.0,50.0,-100.00,North,5,1.0,4.0,37,0.00,,,-99.99,,2013-07-02 00:01:00,
2013-07-01 19:12:00,80.0,52.0,-100.00,NNW,345,1.0,3.0,38,0.00,,,-99.99,,2013-07-02 00:12:00,
2013-07-01 19:22:00,80.0,52.0,-100.00,NNW,345,2.0,4.0,37,0.00,,,-99.99,,2013-07-02 00:22:00,
2013-07-01 19:33:00,81.0,52.0,-100.00,North,0,2.0,6.0,37,0.00,,,-99.99,,2013-07-02 00:33:00,
2013-07-01 19:43:00,81.0,52.0,-100.00,NNE,25,1.0,5.0,37,0.00,,,-99.99,,2013-07-02 00:43:00,
2013-07-01 19:53:00,81.0,53.0,-100.00,NNE,30,0.0,4.0,37,0.00,,,-99.99,,2013-07-02 00:53:00,
2013-07-01 20:01:00,80.0,52.0,-100.00,North,0,0.0,2.0,37,0.00,,,-99.99,,2013-07-02 01:01:00,
2013-07-01 20:11:00,80.0,52.0,-100.00,NE,40,1.0,3.0,37,0.00,,,-99.99,,2013-07-02 01:11:00,
2013-07-01 20:22:00,79.0,52.0,-100.00,NE,45,1.0,2.0,38,0.00,,,-99.99,,2013-07-02 01:22:00,
2013-07-01 20:33:00,79.0,51.0,-100.00,NNE,30,2.0,4.0,38,0.00,,,-99.99,,2013-07-02 01:33:00,
2013-07-01 20:43:00,78.0,51.0,-100.00,NE,45,2.0,3.0,40,0.00,,,-99.99,,2013-07-02 01:43:00,
2013-07-01 20:53:00,76.0,51.0,-100.00,NE,45,1.0,4.0,40,0.00,,,-99.99,,2013-07-02 01:53:00,
2013-07-01 21:02:00,75.0,51.0,-100.00,NE,35,1.0,3.0,41,0.00,,,-99.99,,2013-07-02 02:02:00,
2013-07-01 21:11:00,74.0,50.0,-100.00,NNE,25,1.0,3.0,42,0.00,,,-99.99,,2013-07-02 02:11:00,
2013-07-01 21:22:00,72.0,50.0,-100.00,North,5,0.0,3.0,44,0.00,,,-99.99,,2013-07-02 02:22:00,
2013-07-01 21:33:00,71.0,50.0,-100.00,NNE,25,0.0,2.0,46,0.00,,,-99.99,,2013-07-02 02:33:00,
2013-07-01 21:43:00,71.0,51.0,-100.00,NNE,20,1.0,3.0,48,0.00,,,-99.99,,2013-07-02 02:43:00,
2013-07-01 21:53:00,70.0,51.0,-100.00,North,5,1.0,2.0,50,0.00,,,-99.99,,2013-07-02 02:53:00,
2013-07-01 22:01:00,69.0,51.0,-100.00,North,0,1.0,2.0,51,0.00,,,-99.99,,2013-07-02 03:01:00,
2013-07-01 22:12:00,69.0,51.0,-100.00,NNE,15,1.0,2.0,52,0.00,,,-99.99,,2013-07-02 03:12:00,
2013-07-01 22:24:00,68.0,52.0,-100.00,East,85,1.0,4.0,56,0.00,,,-99.99,,2013-07-02 03:24:00,
2013-07-01 22:32:00,67.0,53.0,-100.00,NE,45,0.0,0.0,59,0.00,,,-99.99,,2013-07-02 03:32:00,
2013-07-01 22:43:00,67.0,53.0,-100.00,NE,45,1.0,1.0,59,0.00,,,-99.99,,2013-07-02 03:43:00,
2013-07-01 22:53:00,68.0,53.0,-100.00,NE,45,1.0,2.0,59,0.00,,,-99.99,,2013-07-02 03:53:00,
2013-07-01 23:02:00,68.0,53.0,-100.00,NE,50,0.0,1.0,60,0.00,,,-99.99,,2013-07-02 04:02:00,
2013-07-01 23:11:00,67.0,54.0,-100.00,NE,40,0.0,0.0,62,0.00,,,-99.99,,2013-07-02 04:11:00,
2013-07-01 23:22:00,67.0,54.0,-100.00,ESE,115,0.0,0.0,64,0.00,,,-99.99,,2013-07-02 04:22:00,
2013-07-01 23:32:00,66.0,55.0,-100.00,North,355,0.0,0.0,67,0.00,,,-99.99,,2013-07-02 04:32:00,
2013-07-01 23:42:00,67.0,55.0,-100.00,WNW,295,0.0,1.0,66,0.00,,,-99.99,,2013-07-02 04:42:00,
2013-07-01 23:53:00,67.0,55.0,-100.00,NW,320,0.0,0.0,65,0.00,,,-99.99,,2013-07-02 04:53:00,